Time,TemperatureF,DewpointF,PressureIn,WindDirection,WindDirectionDegrees,WindSpeedMPH,WindSpeedGustMPH,Humidity,HourlyPrecipIn,Conditions,Clouds,dailyrainin,SoftwareType,DateUTC
2013-07-27 00:10:00,63.5,55.8,30.06,East,85,0.0,0.0,76,0.00,,,0.01,Wunderground v.1.15,2013-07-27 05:10:00,
2013-07-27 00:20:00,63.2,55.9,30.05,East,85,0.0,0.0,77,0.00,,,0.01,Wunderground v.1.15,2013-07-27 05:20:00,
2013-07-27 00:30:00,63.0,55.7,30.05,ESE,115,0.0,0.0,77,0.00,,,0.01,Wunderground v.1.15,2013-07-27 05:30:00,
2013-07-27 00:40:00,62.6,55.6,30.05,ESE,116,0.0,0.0,78,0.00,,,0.01,Wunderground v.1.15,2013-07-27 05:40:00,
2013-07-27 00:50:00,62.4,55.8,30.05,ESE,108,0.0,0.0,79,0.00,,,0.01,Wunderground v.1.15,2013-07-27 05:50:00,
2013-07-27 01:00:00,62.4,55.4,30.05,ENE,70,0.0,1.0,78,0.00,,,0.01,Wunderground v.1.15,2013-07-27 06:00:00,
2013-07-27 01:10:00,62.3,55.7,30.05,East,91,0.0,0.0,79,0.00,,,0.01,Wunderground v.1.15,2013-07-27 06:10:00,
2013-07-27 01:20:00,62.0,55.4,30.05,East,91,0.0,0.0,79,0.00,,,0.01,Wunderground v.1.15,2013-07-27 06:20:00,
2013-07-27 01:30:00,61.6,55.0,30.05,East,91,0.0,0.0,79,0.00,,,0.01,Wunderground v.1.15,2013-07-27 06:30:00,
2013-07-27 01:40:00,61.5,55.3,30.04,ENE,61,1.0,1.0,80,0.00,,,0.01,Wunderground v.1.15,2013-07-27 06:40:00,
2013-07-27 01:50:00,61.6,55.4,30.04,North,6,1.0,1.0,80,0.00,,,0.01,Wunderground v.1.15,2013-07-27 06:50:00,
2013-07-27 02:00:00,61.3,55.1,30.04,NNE,16,0.0,2.0,80,0.00,,,0.01,Wunderground v.1.15,2013-07-27 07:00:00,
2013-07-27 02:10:00,61.2,55.0,30.05,NE,56,1.0,1.0,80,0.00,,,0.01,Wunderground v.1.15,2013-07-27 07:10:00,
2013-07-27 02:20:00,61.1,54.9,30.04,ESE,115,1.0,1.0,80,0.00,,,0.00,Wunderground v.1.15,2013-07-27 07:20:00,
2013-07-27 02:30:00,60.9,55.0,30.04,ENE,62,0.0,0.0,81,0.00,,,0.00,Wunderground v.1.15,2013-07-27 07:30:00,
2013-07-27 02:40:00,60.5,55.0,30.04,East,91,1.0,2.0,82,0.00,,,0.00,Wunderground v.1.15,2013-07-27 07:40:00,
2013-07-27 02:50:00,60.5,55.0,30.03,ENE,70,2.0,2.0,82,0.00,,,0.00,Wunderground v.1.15,2013-07-27 07:50:00,
2013-07-27 03:00:00,60.3,54.8,30.03,NNE,29,1.0,2.0,82,0.00,,,0.00,Wunderground v.1.15,2013-07-27 08:00:00,
2013-07-27 03:10:00,60.1,54.9,30.02,ESE,104,2.0,2.0,83,0.00,,,0.00,Wunderground v.1.15,2013-07-27 08:10:00,
2013-07-27 03:20:00,60.1,55.2,30.02,ENE,64,1.0,1.0,84,0.00,,,0.01,Wunderground v.1.15,2013-07-27 08:20:00,
2013-07-27 03:30:00,59.7,55.5,30.01,NE,41,1.0,3.0,86,0.00,,,0.01,Wunderground v.1.15,2013-07-27 08:30:00,
2013-07-27 03:40:00,59.3,55.7,30.01,ENE,75,1.0,2.0,88,0.00,,,0.01,Wunderground v.1.15,2013-07-27 08:40:00,
2013-07-27 03:50:00,59.2,55.6,30.01,NNE,33,1.0,1.0,88,0.00,,,0.01,Wunderground v.1.15,2013-07-27 08:50:00,
2013-07-27 04:00:00,59.2,56.0,30.04,NW,309,2.0,2.0,89,0.00,,,0.01,Wunderground v.1.15,2013-07-27 09:00:00,
2013-07-27 04:10:00,59.4,56.2,30.02,East,91,2.0,2.0,89,0.47,,,0.04,Wunderground v.1.15,2013-07-27 09:10:00,
2013-07-27 04:20:00,59.1,55.9,30.02,NW,326,1.0,2.0,89,0.05,,,0.04,Wunderground v.1.15,2013-07-27 09:20:00,
2013-07-27 04:30:00,58.9,56.0,30.04,East,100,2.0,2.0,90,0.04,,,0.05,Wunderground v.1.15,2013-07-27 09:30:00,
2013-07-27 04:40:00,58.9,56.0,30.06,NNW,346,1.0,2.0,90,0.00,,,0.05,Wunderground v.1.15,2013-07-27 09:40:00,
2013-07-27 04:50:00,59.0,56.4,30.03,South,190,2.0,2.0,91,0.00,,,0.06,Wunderground v.1.15,2013-07-27 09:50:00,
2013-07-27 05:00:00,58.8,56.5,30.03,ENE,57,2.0,2.0,92,0.88,,,0.12,Wunderground v.1.15,2013-07-27 10:00:00,
2013-07-27 05:10:00,57.9,55.6,30.06,NNE,12,3.0,6.0,92,0.93,,,0.31,Wunderground v.1.15,2013-07-27 10:10:00,
2013-07-27 05:20:00,57.4,55.1,30.05,NE,48,3.0,4.0,92,0.22,,,0.37,Wunderground v.1.15,2013-07-27 10:20:00,
2013-07-27 05:30:00,57.2,54.9,30.06,East,94,3.0,3.0,92,0.05,,,0.37,Wunderground v.1.15,2013-07-27 10:30:00,
2013-07-27 05:40:00,57.3,55.3,30.10,NW,312,1.0,4.0,93,0.00,,,0.38,Wunderground v.1.15,2013-07-27 10:40:00,
2013-07-27 05:50:00,57.9,55.0,30.07,NE,53,4.0,4.0,90,0.00,,,0.38,Wunderground v.1.15,2013-07-27 10:50:00,
2013-07-27 06:00:00,58.2,55.0,30.07,ESE,105,3.0,3.0,89,0.00,,,0.38,Wunderground v.1.15,2013-07-27 11:00:00,
2013-07-27 06:10:00,58.0,54.8,30.06,SE,129,3.0,3.0,89,0.00,,,0.38,Wunderground v.1.15,2013-07-27 11:10:00,
2013-07-27 06:20:00,57.9,54.7,30.06,East,80,4.0,4.0,89,0.00,,,0.38,Wunderground v.1.15,2013-07-27 11:20:00,
2013-07-27 06:30:00,57.8,54.9,30.06,North,7,3.0,5.0,90,0.00,,,0.38,Wunderground v.1.15,2013-07-27 11:30:00,
2013-07-27 06:40:00,58.0,54.8,30.07,NE,47,3.0,3.0,89,0.00,,,0.38,Wunderground v.1.15,2013-07-27 11:40:00,
2013-07-27 06:50:00,58.0,55.1,30.07,East,86,1.0,3.0,90,0.00,,,0.38,Wunderground v.1.15,2013-07-27 11:50:00,
2013-07-27 07:10:00,58.0,55.7,30.10,NW,319,3.0,5.0,92,0.00,,,0.38,Wunderground v.1.15,2013-07-27 12:10:00,
2013-07-27 07:20:00,58.0,55.7,30.09,NNE,32,4.0,4.0,92,0.00,,,0.38,Wunderground v.1.15,2013-07-27 12:20:00,
2013-07-27 07:30:00,58.1,55.5,30.08,NNE,14,2.0,2.0,91,0.00,,,0.38,Wunderground v.1.15,2013-07-27 12:30:00,
2013-07-27 07:40:00,58.2,55.6,30.08,SE,126,2.0,3.0,91,0.00,,,0.38,Wunderground v.1.15,2013-07-27 12:40:00,
2013-07-27 07:50:00,58.5,55.9,30.07,East,79,2.0,2.0,91,0.00,,,0.38,Wunderground v.1.15,2013-07-27 12:50:00,
2013-07-27 08:00:00,58.7,55.8,30.07,ENE,58,2.0,2.0,90,0.00,,,0.38,Wunderground v.1.15,2013-07-27 13:00:00,
2013-07-27 08:10:00,58.7,55.8,30.07,East,87,2.0,2.0,90,0.00,,,0.38,Wunderground v.1.15,2013-07-27 13:10:00,
2013-07-27 08:20:00,58.7,55.8,30.07,ESE,102,2.0,3.0,90,0.00,,,0.38,Wunderground v.1.15,2013-07-27 13:20:00,
2013-07-27 08:30:00,58.8,55.9,30.07,North,352,2.0,2.0,90,0.00,,,0.38,Wunderground v.1.15,2013-07-27 13:30:00,
2013-07-27 08:40:00,59.0,56.1,30.07,East,86,2.0,4.0,90,0.00,,,0.38,Wunderground v.1.15,2013-07-27 13:40:00,
2013-07-27 08:50:00,59.1,56.2,30.07,ESE,108,2.0,2.0,90,0.00,,,0.38,Wunderground v.1.15,2013-07-27 13:50:00,
2013-07-27 09:00:00,59.1,55.9,30.08,ENE,74,2.0,2.0,89,0.00,,,0.38,Wunderground v.1.15,2013-07-27 14:00:00,
2013-07-27 09:10:00,59.1,55.9,30.08,NE,50,1.0,3.0,89,0.00,,,0.38,Wunderground v.1.15,2013-07-27 14:10:00,
2013-07-27 09:20:00,59.3,56.4,30.07,ESE,108,2.0,2.0,90,0.00,,,0.38,Wunderground v.1.15,2013-07-27 14:20:00,
2013-07-27 09:30:00,59.4,55.8,30.08,NE,48,2.0,2.0,88,0.00,,,0.38,Wunderground v.1.15,2013-07-27 14:30:00,
2013-07-27 09:40:00,59.5,55.6,30.08,ESE,103,1.0,1.0,87,0.00,,,0.38,Wunderground v.1.15,2013-07-27 14:40:00,
2013-07-27 09:50:00,59.8,56.2,30.07,NNE,25,1.0,2.0,88,0.00,,,0.38,Wunderground v.1.15,2013-07-27 14:50:00,
2013-07-27 10:00:00,60.1,56.5,30.06,ENE,75,2.0,2.0,88,0.00,,,0.38,Wunderground v.1.15,2013-07-27 15:00:00,
2013-07-27 10:10:00,60.3,56.7,30.06,SSE,160,1.0,3.0,88,0.00,,,0.38,Wunderground v.1.15,2013-07-27 15:10:00,
2013-07-27 10:20:00,60.4,56.5,30.06,ESE,105,2.0,2.0,87,0.00,,,0.38,Wunderground v.1.15,2013-07-27 15:20:00,
2013-07-27 10:30:00,60.5,56.6,30.06,NE,46,1.0,1.0,87,0.00,,,0.38,Wunderground v.1.15,2013-07-27 15:30:00,
2013-07-27 10:40:00,60.8,56.9,30.08,SSE,166,1.0,1.0,87,0.00,,,0.38,Wunderground v.1.15,2013-07-27 15:40:00,
2013-07-27 10:50:00,60.9,56.7,30.08,SE,136,1.0,1.0,86,0.00,,,0.38,Wunderground v.1.15,2013-07-27 15:50:00,
2013-07-27 11:00:00,60.9,56.7,30.08,ESE,105,1.0,1.0,86,0.00,,,0.38,Wunderground v.1.15,2013-07-27 16:00:00,
2013-07-27 11:10:00,61.0,56.8,30.07,East,92,1.0,1.0,86,0.00,,,0.38,Wunderground v.1.15,2013-07-27 16:10:00,
2013-07-27 11:20:00,61.2,57.0,30.07,SE,136,1.0,1.0,86,0.00,,,0.38,Wunderground v.1.15,2013-07-27 16:20:00,
2013-07-27 11:30:00,61.2,56.3,30.08,ENE,78,1.0,1.0,84,0.00,,,0.38,Wunderground v.1.15,2013-07-27 16:30:00,
2013-07-27 11:40:00,61.4,56.8,30.08,ESE,110,0.0,2.0,85,0.00,,,0.38,Wunderground v.1.15,2013-07-27 16:40:00,
2013-07-27 11:50:00,61.7,56.8,30.08,SE,139,0.0,0.0,84,0.00,,,0.38,Wunderground v.1.15,2013-07-27 16:50:00,
2013-07-27 12:00:00,62.2,57.0,30.08,North,5,0.0,1.0,83,0.00,,,0.38,Wunderground v.1.15,2013-07-27 17:00:00,
2013-07-27 12:10:00,62.8,58.2,30.07,SE,145,1.0,1.0,85,0.00,,,0.38,Wunderground v.1.15,2013-07-27 17:10:00,
2013-07-27 12:20:00,63.8,58.2,30.06,SW,214,1.0,3.0,82,0.00,,,0.38,Wunderground v.1.15,2013-07-27 17:20:00,
2013-07-27 12:30:00,63.7,57.8,30.07,ENE,78,2.0,2.0,81,0.00,,,0.38,Wunderground v.1.15,2013-07-27 17:30:00,
2013-07-27 12:40:00,63.5,57.6,30.06,SSE,153,1.0,2.0,81,0.00,,,0.38,Wunderground v.1.15,2013-07-27 17:40:00,
2013-07-27 12:50:00,63.4,57.5,30.06,ESE,110,2.0,2.0,81,0.00,,,0.38,Wunderground v.1.15,2013-07-27 17:50:00,
2013-07-27 13:00:00,63.5,57.9,30.07,East,101,1.0,2.0,82,0.00,,,0.38,Wunderground v.1.15,2013-07-27 18:00:00,
2013-07-27 13:10:00,63.1,57.5,30.06,East,87,1.0,1.0,82,0.00,,,0.38,Wunderground v.1.15,2013-07-27 18:10:00,
2013-07-27 13:20:00,63.1,57.9,30.06,East,79,1.0,1.0,83,0.00,,,0.38,Wunderground v.1.15,2013-07-27 18:20:00,
2013-07-27 13:30:00,62.8,57.6,30.05,ENE,59,2.0,4.0,83,0.00,,,0.38,Wunderground v.1.15,2013-07-27 18:30:00,
2013-07-27 13:40:00,63.1,57.2,30.05,East,99,2.0,2.0,81,0.00,,,0.38,Wunderground v.1.15,2013-07-27 18:40:00,
2013-07-27 13:50:00,63.5,57.6,30.04,ENE,75,2.0,2.0,81,0.00,,,0.38,Wunderground v.1.15,2013-07-27 18:50:00,
2013-07-27 14:00:00,64.4,57.4,30.02,East,101,3.0,3.0,78,0.00,,,0.38,Wunderground v.1.15,2013-07-27 19:00:00,
2013-07-27 14:10:00,66.5,58.7,30.03,NNE,27,3.0,4.0,76,0.00,,,0.38,Wunderground v.1.15,2013-07-27 19:10:00,
2013-07-27 14:20:00,66.6,57.3,30.03,East,86,3.0,3.0,72,0.00,,,0.38,Wunderground v.1.15,2013-07-27 19:20:00,
2013-07-27 14:30:00,67.2,57.1,30.03,NE,49,3.0,4.0,70,0.00,,,0.38,Wunderground v.1.15,2013-07-27 19:30:00,
2013-07-27 14:40:00,67.0,55.7,30.04,North,350,2.0,2.0,67,0.00,,,0.38,Wunderground v.1.15,2013-07-27 19:40:00,
2013-07-27 14:50:00,66.1,55.6,30.04,ESE,103,2.0,2.0,69,0.00,,,0.38,Wunderground v.1.15,2013-07-27 19:50:00,
2013-07-27 15:00:00,65.8,56.1,30.04,ESE,117,1.0,1.0,71,0.00,,,0.38,Wunderground v.1.15,2013-07-27 20:00:00,
2013-07-27 15:10:00,65.6,56.3,30.05,ESE,113,0.0,0.0,72,0.00,,,0.38,Wunderground v.1.15,2013-07-27 20:10:00,
2013-07-27 15:20:00,65.4,56.5,30.04,SE,134,0.0,2.0,73,0.00,,,0.38,Wunderground v.1.15,2013-07-27 20:20:00,
2013-07-27 15:30:00,64.8,58.1,30.03,SSE,156,1.0,1.0,79,0.00,,,0.39,Wunderground v.1.15,2013-07-27 20:30:00,
2013-07-27 15:40:00,63.9,58.0,30.02,SE,136,1.0,1.0,81,0.07,,,0.40,Wunderground v.1.15,2013-07-27 20:40:00,
2013-07-27 15:50:00,62.8,57.9,30.05,WNW,283,2.0,2.0,84,0.20,,,0.45,Wunderground v.1.15,2013-07-27 20:50:00,
2013-07-27 16:00:00,61.8,57.9,30.04,SE,136,2.0,4.0,87,0.61,,,0.61,Wunderground v.1.15,2013-07-27 21:00:00,
2013-07-27 16:10:00,60.7,57.4,30.00,South,184,2.0,2.0,89,0.33,,,0.68,Wunderground v.1.15,2013-07-27 21:10:00,
2013-07-27 16:20:00,60.8,57.2,30.04,West,271,2.0,2.0,88,0.05,,,0.68,Wunderground v.1.15,2013-07-27 21:20:00,
2013-07-27 16:30:00,61.3,58.0,30.03,SE,129,0.0,0.0,89,0.00,,,0.68,Wunderground v.1.15,2013-07-27 21:30:00,
2013-07-27 16:40:00,62.0,57.4,30.00,NE,41,1.0,1.0,85,0.00,,,0.68,Wunderground v.1.15,2013-07-27 21:40:00,
2013-07-27 16:50:00,63.1,57.2,30.01,SSW,203,2.0,2.0,81,0.00,,,0.68,Wunderground v.1.15,2013-07-27 21:50:00,
2013-07-27 17:00:00,63.6,56.6,30.00,SSE,150,3.0,3.0,78,0.00,,,0.68,Wunderground v.1.15,2013-07-27 22:00:00,
2013-07-27 17:10:00,63.4,57.8,29.98,ESE,106,3.0,3.0,82,0.00,,,0.68,Wunderground v.1.15,2013-07-27 22:10:00,
2013-07-27 17:20:00,63.6,57.7,29.99,SE,126,2.0,2.0,81,0.00,,,0.68,Wunderground v.1.15,2013-07-27 22:20:00,
2013-07-27 17:30:00,64.2,57.2,29.98,SE,135,1.0,4.0,78,0.00,,,0.68,Wunderground v.1.15,2013-07-27 22:30:00,
2013-07-27 17:40:00,65.5,57.7,29.99,SE,133,2.0,3.0,76,0.00,,,0.68,Wunderground v.1.15,2013-07-27 22:40:00,
2013-07-27 17:50:00,65.0,56.1,29.99,SSE,159,4.0,4.0,73,0.00,,,0.68,Wunderground v.1.15,2013-07-27 22:50:00,
2013-07-27 18:00:00,64.4,55.6,30.00,ESE,104,3.0,3.0,73,0.00,,,0.68,Wunderground v.1.15,2013-07-27 23:00:00,
2013-07-27 18:10:00,64.1,55.6,30.00,NE,56,1.0,1.0,74,0.00,,,0.68,Wunderground v.1.15,2013-07-27 23:10:00,
2013-07-27 18:20:00,63.9,56.5,29.99,East,84,0.0,0.0,77,0.00,,,0.68,Wunderground v.1.15,2013-07-27 23:20:00,
2013-07-27 18:30:00,63.9,56.9,29.98,ESE,120,0.0,0.0,78,0.00,,,0.68,Wunderground v.1.15,2013-07-27 23:30:00,
2013-07-27 18:40:00,64.0,57.4,29.97,SE,142,2.0,2.0,79,0.00,,,0.68,Wunderground v.1.15,2013-07-27 23:40:00,
2013-07-27 18:50:00,64.1,57.1,29.97,NE,40,1.0,1.0,78,0.00,,,0.68,Wunderground v.1.15,2013-07-27 23:50:00,
2013-07-27 19:00:00,64.0,57.4,29.96,East,97,1.0,1.0,79,0.00,,,0.68,Wunderground v.1.15,2013-07-28 00:00:00,
2013-07-27 19:10:00,63.9,57.3,29.96,ENE,76,1.0,1.0,79,0.00,,,0.68,Wunderground v.1.15,2013-07-28 00:10:00,
2013-07-27 19:20:00,64.2,57.9,29.96,SE,135,1.0,1.0,80,0.00,,,0.68,Wunderground v.1.15,2013-07-28 00:20:00,
2013-07-27 19:30:00,64.5,58.2,29.96,ESE,107,1.0,1.0,80,0.00,,,0.68,Wunderground v.1.15,2013-07-28 00:30:00,
2013-07-27 19:40:00,64.5,57.5,29.96,ESE,112,1.0,1.0,78,0.00,,,0.68,Wunderground v.1.15,2013-07-28 00:40:00,
2013-07-27 19:50:00,64.5,57.5,29.96,ESE,108,0.0,0.0,78,0.00,,,0.68,Wunderground v.1.15,2013-07-28 00:50:00,
2013-07-27 20:00:00,64.3,57.3,29.96,East,94,1.0,1.0,78,0.00,,,0.68,Wunderground v.1.15,2013-07-28 01:00:00,
2013-07-27 20:10:00,64.0,57.4,29.97,SSE,153,1.0,1.0,79,0.00,,,0.68,Wunderground v.1.15,2013-07-28 01:10:00,
2013-07-27 20:20:00,63.8,57.2,29.97,SE,141,0.0,0.0,79,0.00,,,0.68,Wunderground v.1.15,2013-07-28 01:20:00,
2013-07-27 20:30:00,63.7,57.4,29.97,SE,144,0.0,0.0,80,0.00,,,0.68,Wunderground v.1.15,2013-07-28 01:30:00,
2013-07-27 20:40:00,63.6,57.3,29.98,SE,143,0.0,0.0,80,0.00,,,0.68,Wunderground v.1.15,2013-07-28 01:40:00,
2013-07-27 20:50:00,63.5,57.6,29.97,East,101,0.0,0.0,81,0.00,,,0.68,Wunderground v.1.15,2013-07-28 01:50:00,
2013-07-27 21:00:00,62.9,57.3,29.97,NE,43,0.0,0.0,82,0.00,,,0.68,Wunderground v.1.15,2013-07-28 02:00:00,
2013-07-27 21:10:00,62.4,57.5,29.97,NE,43,0.0,0.0,84,0.00,,,0.68,Wunderground v.1.15,2013-07-28 02:10:00,
2013-07-27 21:20:00,62.1,57.9,29.98,NE,42,0.0,0.0,86,0.00,,,0.68,Wunderground v.1.15,2013-07-28 02:20:00,
2013-07-27 21:30:00,62.1,57.9,29.97,NE,43,0.0,0.0,86,0.00,,,0.68,Wunderground v.1.15,2013-07-28 02:30:00,
2013-07-27 21:40:00,62.3,58.4,29.97,NE,43,0.0,0.0,87,0.00,,,0.68,Wunderground v.1.15,2013-07-28 02:40:00,
2013-07-27 21:50:00,62.3,58.4,29.98,NE,43,0.0,0.0,87,0.00,,,0.68,Wunderground v.1.15,2013-07-28 02:50:00,
2013-07-27 22:00:00,62.4,58.5,29.99,SE,136,0.0,0.0,87,0.00,,,0.68,Wunderground v.1.15,2013-07-28 03:00:00,
2013-07-27 22:10:00,62.4,58.5,30.00,SE,137,0.0,0.0,87,0.00,,,0.68,Wunderground v.1.15,2013-07-28 03:10:00,
2013-07-27 22:20:00,62.6,59.0,30.00,SE,136,0.0,0.0,88,0.00,,,0.68,Wunderground v.1.15,2013-07-28 03:20:00,
2013-07-27 22:30:00,62.5,58.9,30.00,SE,136,0.0,0.0,88,0.00,,,0.68,Wunderground v.1.15,2013-07-28 03:30:00,
2013-07-27 22:40:00,62.2,58.3,29.99,SE,136,0.0,0.0,87,0.00,,,0.68,Wunderground v.1.15,2013-07-28 03:40:00,
2013-07-27 22:50:00,62.1,58.2,30.00,SE,136,0.0,0.0,87,0.00,,,0.68,Wunderground v.1.15,2013-07-28 03:50:00,
2013-07-27 23:00:00,62.1,57.9,30.00,SE,136,0.0,0.0,86,0.00,,,0.68,Wunderground v.1.15,2013-07-28 04:00:00,
2013-07-27 23:10:00,62.2,58.3,30.00,SE,136,0.0,0.0,87,0.00,,,0.68,Wunderground v.1.15,2013-07-28 04:10:00,
2013-07-27 23:20:00,62.2,58.3,30.00,SE,136,0.0,0.0,87,0.00,,,0.68,Wunderground v.1.15,2013-07-28 04:20:00,
2013-07-27 23:30:00,62.3,58.1,29.99,SE,136,0.0,0.0,86,0.00,,,0.68,Wunderground v.1.15,2013-07-28 04:30:00,
2013-07-27 23:40:00,62.2,57.6,30.00,SE,136,0.0,0.0,85,0.00,,,0.68,Wunderground v.1.15,2013-07-28 04:40:00,
2013-07-27 23:50:00,62.2,57.6,29.99,SE,127,0.0,0.0,85,0.00,,,0.68,Wunderground v.1.15,2013-07-28 04:50:00,